[[{"header":{"parameterUnit":"m.s-1","parameterCategory":1,"la1":30.2991,"la2":30.254,"lo1":-89.0895,"lo2":-89.0444,"dy":0.0017,"dx":0.0017,"nx":28,"ny":28,"refTime":"2025-08-18T21:00:00:Z","depth":0,"parameterNumber":2,"parameterNumberName":"U-component_of_WINDS"},"data":[0,0,0,0,0,0,0,0,0,0,0,0,0,0,0,0,0,0,0,0,0,0,0,0,0,0,0,0,0,0,0,0,0,0,0,0,0,0,0,0,0,0,0,0,0,0,0,0,0,0,0,0,0,0,0,0,0,0,-0.637,-0.637,0,-0.6394,-0.6394,-0.6394,-0.6395,-0.6395,-0.6395,-0.6395,-0.6419,-0.642,-0.642,0,0,0,0,0,0,0,0,0,0,0,0,0,-0.6324,-0.6325,-0.637,-0.637,-0.637,-0.6394,-0.6394,-0.6394,-0.6395,-0.6395,-0.6395,-0.6394,-0.6418,-0.6419,-0.6421,0,0,0,0,0,0,0,0,0,0,0,0,0,-0.6345,-0.6325,-0.637,-0.6374,-0.6374,-0.6394,-0.6394,-0.6394,-0.6396,-0.6395,-0.6395,-0.6394,-0.6418,-0.6419,-0.6421,-0.6438,0,0,-0.6425,-0.6425,0,0,0,0,0,0,0,0,-0.6344,-0.6347,-0.6373,-0.6373,-0.6374,-0.6391,-0.6387,-0.6409,-0.6396,-0.6387,-0.6395,-0.6394,-0.641,-0.6412,-0.6417,-0.6439,-0.644,-0.6425,-0.6426,-0.6426,-0.6427,0,0,0,0,0,0,0,-0.6343,-0.6346,-0.6379,-0.6373,-0.6374,-0.6374,-0.6377,-0.6391,-0.6401,-0.6388,-0.6388,-0.6391,-0.641,-0.6416,-0.6418,-0.644,-0.6425,-0.6426,-0.6427,-0.6428,-0.6477,-0.6477,0,0,0,0,0,0,-0.634,-0.6345,-0.6378,-0.638,-0.6358,-0.6375,-0.6378,-0.6386,-0.6401,-0.6402,-0.6391,-0.6391,-0.6414,-0.6416,-0.6419,-0.644,-0.6426,-0.6428,-0.6428,-0.6476,-0.6477,-0.6478,0,0,0,0,0,0,-0.6339,-0.6343,-0.6377,-0.6362,-0.6367,-0.6376,-0.6385,-0.6387,-0.6393,-0.6403,-0.6405,-0.6396,-0.6414,-0.6417,-0.6433,-0.6441,-0.6428,-0.643,-0.6476,-0.6477,-0.6477,-0.6482,0,0,0,0,0,0,-0.6338,-0.6343,-0.635,-0.6363,-0.6367,-0.6391,-0.6386,-0.6388,-0.6395,-0.6395,-0.6408,-0.6409,-0.6414,-0.6431,-0.6434,-0.6442,-0.6431,-0.6475,-0.6476,-0.6477,-0.6481,-0.6483,-0.6484,0,0,0,0,0,-0.6337,-0.635,-0.635,-0.6354,-0.6376,-0.6392,-0.6395,-0.64,-0.6396,-0.6402,-0.6409,-0.6409,-0.6439,-0.6433,-0.6436,-0.6445,-0.6475,-0.6476,-0.6477,-0.6481,-0.6483,-0.6484,0,0,0,0,0,0,-0.6338,-0.6352,-0.6352,-0.637,-0.638,-0.6392,-0.6401,-0.6401,-0.6412,-0.6412,-0.6417,-0.642,-0.6436,-0.6442,-0.6435,-0.6462,-0.6456,-0.6458,-0.6458,-0.646,-0.6461,-0.646,-0.6432,0,0,0,0,0,-0.634,-0.6352,-0.6363,-0.6378,-0.6383,-0.6391,-0.6398,-0.6401,-0.6411,-0.6415,-0.6423,-0.6433,-0.6445,-0.6453,-0.6464,-0.6482,-0.6485,-0.649,-0.6491,-0.6492,-0.6494,-0.6504,-0.6507,-0.6481,-0.6481,-0.6481,0,0,-0.6345,-0.6354,-0.6361,-0.6378,-0.6386,-0.6399,-0.6394,-0.6407,-0.6416,-0.6417,-0.6433,-0.6439,-0.6451,-0.6468,-0.6476,-0.6473,-0.6502,-0.6494,-0.6494,-0.6496,-0.6506,-0.6508,-0.651,-0.6482,-0.6482,-0.6482,0,0,-0.636,-0.6368,-0.6382,-0.639,-0.6402,-0.6407,-0.641,-0.6422,-0.6427,-0.6443,-0.6444,-0.6454,-0.6474,-0.6483,-0.6489,-0.6508,-0.6508,-0.6511,-0.6519,-0.6529,-0.6531,-0.6533,-0.654,-0.6543,-0.6513,-0.6513,-0.6513,0,-0.6365,-0.6383,-0.6388,-0.6401,-0.6409,-0.641,-0.6424,-0.6432,-0.6447,-0.6452,-0.6449,-0.6474,-0.6482,-0.6501,-0.6506,-0.6511,-0.6515,-0.651,-0.6531,-0.6533,-0.6534,-0.6541,-0.6544,-0.6513,-0.6513,-0.6513,-0.6513,0,-0.6389,-0.6402,-0.6411,-0.6426,-0.6435,-0.6448,-0.6455,-0.6463,-0.6465,-0.647,-0.6487,-0.6496,-0.6509,-0.6514,-0.6516,-0.6534,-0.6532,-0.653,-0.6524,-0.6537,-0.6544,-0.6546,-0.6514,-0.6514,-0.6514,-0.6514,0,0,-0.6406,-0.6424,-0.6427,-0.6434,-0.6447,-0.6457,-0.647,-0.6484,-0.6491,-0.6501,-0.6513,-0.653,-0.6528,-0.6535,-0.6538,-0.6547,-0.6562,-0.6544,-0.6544,-0.6547,-0.6582,-0.6584,-0.6587,-0.6561,-0.6562,-0.6562,-0.6582,0,-0.6423,-0.6448,-0.6452,-0.6473,-0.6485,-0.6486,-0.6498,-0.6507,-0.6513,-0.6524,-0.6529,-0.6542,-0.6538,-0.6543,-0.6551,-0.6558,-0.6569,-0.6556,-0.6572,-0.6573,-0.657,-0.6591,-0.6593,-0.6611,-0.6584,-0.6585,-0.6585,0,-0.6447,-0.6458,-0.6481,-0.6493,-0.6498,-0.6508,-0.6521,-0.6531,-0.6542,-0.6545,-0.6554,-0.6556,-0.657,-0.6563,-0.6582,-0.6574,-0.658,-0.6585,-0.6585,-0.6588,-0.658,-0.6594,-0.6616,-0.6619,-0.6589,-0.6588,-0.6588,0,-0.6458,-0.6479,-0.6495,-0.6501,-0.6515,-0.6523,-0.6529,-0.6539,-0.6547,-0.6558,-0.6563,-0.6575,-0.6582,-0.6592,-0.6597,-0.6591,-0.6616,-0.6609,-0.6619,-0.6619,-0.6625,-0.6625,-0.6649,-0.6628,-0.6628,-0.6628,-0.6628,0,-0.6478,-0.6491,-0.65,-0.651,-0.6526,-0.6531,-0.6546,-0.6552,-0.6561,-0.6572,-0.6573,-0.6584,-0.659,-0.6601,-0.6605,-0.662,-0.6623,-0.6626,-0.6627,-0.6627,-0.6626,-0.6632,-0.6631,-0.6628,-0.6628,-0.6628,-0.6628,0,-0.6493,-0.65,-0.6517,-0.653,-0.6533,-0.6544,-0.6554,-0.6564,-0.6569,-0.6583,-0.6587,-0.6595,-0.6608,-0.6614,-0.663,-0.6633,-0.6651,-0.6651,-0.6647,-0.6648,-0.6658,-0.6657,-0.6687,-0.6692,-0.6667,-0.6667,-0.6667,0,-0.6506,-0.6516,-0.653,-0.6537,-0.6544,-0.6556,-0.6564,-0.6569,-0.6578,-0.6591,-0.6599,-0.6612,-0.6623,-0.6644,-0.6652,-0.6664,-0.6665,-0.6674,-0.6666,-0.6666,-0.6666,-0.6665,-0.6667,-0.6676,-0.6676,-0.6676,-0.6677,0,-0.6527,-0.653,-0.6542,-0.6555,-0.6564,-0.6575,-0.6585,-0.6591,-0.6598,-0.6607,-0.6621,-0.6629,-0.6646,-0.6659,-0.6672,-0.6678,-0.6679,-0.6679,-0.6682,-0.6682,-0.668,-0.6682,-0.6652,-0.6678,-0.6678,-0.6678,-0.6678,-0.6678,-0.6542,-0.6552,-0.6563,-0.6576,-0.6584,-0.6593,-0.6603,-0.661,-0.6621,-0.6636,-0.6638,-0.6653,-0.6663,-0.668,-0.6687,-0.6699,-0.6696,-0.67,-0.6702,-0.6703,-0.6704,-0.6677,-0.6701,-0.6701,-0.6701,-0.6701,-0.6701,0,-0.6564,-0.6571,-0.6583,-0.6598,-0.6608,-0.6607,-0.6619,-0.6627,-0.664,-0.665,-0.6661,-0.6677,-0.6689,-0.6698,-0.6711,-0.6718,-0.6719,-0.6722,-0.6722,-0.6723,-0.6705,-0.6701,-0.6721,-0.6721,-0.6721,-0.6721,-0.6721,-0.6721,-0.6577,-0.6594,-0.6598,-0.6618,-0.6625,-0.664,-0.6646,-0.6655,-0.6663,-0.6681,-0.6692,-0.6697,-0.6706,-0.672,-0.6731,-0.6734,-0.6739,-0.6742,-0.6744,-0.6726,-0.6724,-0.6722,-0.6719,-0.6742,-0.6742,-0.6761,-0.6761,-0.6761]},{"header":{"parameterUnit":"m.s-1","parameterCategory":1,"la1":30.2991,"la2":30.254,"lo1":-89.0895,"lo2":-89.0444,"dy":0.0017,"dx":0.0017,"nx":28,"ny":28,"refTime":"2025-08-18T21:00:00:Z","depth":0,"parameterNumber":3,"parameterNumberName":"V-component_of_WINDS"},"data":[0,0,0,0,0,0,0,0,0,0,0,0,0,0,0,0,0,0,0,0,0,0,0,0,0,0,0,0,0,0,0,0,0,0,0,0,0,0,0,0,0,0,0,0,0,0,0,0,0,0,0,0,0,0,0,0,0,0,-2.0116,-2.0116,0,-2.0163,-2.0163,-2.0164,-2.0158,-2.0158,-2.0157,-2.0156,-2.0202,-2.0204,-2.0206,0,0,0,0,0,0,0,0,0,0,0,0,0,-2.0022,-2.0024,-2.0116,-2.0116,-2.0117,-2.0162,-2.0163,-2.0164,-2.0158,-2.0158,-2.0157,-2.0156,-2.0201,-2.0204,-2.0206,0,0,0,0,0,0,0,0,0,0,0,0,0,-2.0065,-2.0024,-2.0116,-2.012,-2.0121,-2.0162,-2.0163,-2.0164,-2.0159,-2.0157,-2.0156,-2.0155,-2.0201,-2.0204,-2.0206,-2.0246,0,0,-2.0215,-2.0216,0,0,0,0,0,0,0,0,-2.0062,-2.0068,-2.0119,-2.012,-2.0121,-2.0154,-2.0147,-2.0191,-2.0159,-2.0144,-2.0156,-2.0155,-2.0187,-2.0191,-2.0202,-2.0248,-2.025,-2.0215,-2.0217,-2.0218,-2.0219,0,0,0,0,0,0,0,-2.0059,-2.0066,-2.0134,-2.0119,-2.0121,-2.0119,-2.0124,-2.0155,-2.0171,-2.0145,-2.0145,-2.0151,-2.0187,-2.0199,-2.0203,-2.0251,-2.0215,-2.0218,-2.022,-2.0221,-2.0335,-2.0336,0,0,0,0,0,0,-2.0056,-2.0064,-2.0133,-2.0136,-2.0088,-2.0122,-2.0127,-2.0144,-2.0171,-2.0174,-2.0152,-2.015,-2.0195,-2.0199,-2.0204,-2.0255,-2.0218,-2.0221,-2.0223,-2.0334,-2.0336,-2.0337,0,0,0,0,0,0,-2.0054,-2.0062,-2.0131,-2.01,-2.0108,-2.0125,-2.0143,-2.0146,-2.0158,-2.0176,-2.0178,-2.0161,-2.0194,-2.02,-2.0237,-2.0256,-2.0222,-2.0225,-2.0332,-2.0334,-2.0336,-2.0355,0,0,0,0,0,0,-2.0051,-2.0061,-2.0076,-2.01,-2.011,-2.0162,-2.0145,-2.0147,-2.0163,-2.0161,-2.0185,-2.0188,-2.0194,-2.0232,-2.0239,-2.026,-2.0227,-2.0331,-2.0333,-2.0336,-2.0352,-2.0357,-2.0361,0,0,0,0,0,-2.0048,-2.0079,-2.0077,-2.0086,-2.013,-2.0164,-2.0169,-2.0176,-2.0164,-2.018,-2.0192,-2.0187,-2.0253,-2.0236,-2.0244,-2.0265,-2.0329,-2.0333,-2.0335,-2.035,-2.0356,-2.0361,0,0,0,0,0,0,-2.0056,-2.0082,-2.008,-2.012,-2.014,-2.0163,-2.0182,-2.0181,-2.0204,-2.0202,-2.0208,-2.0213,-2.0251,-2.0261,-2.0242,-2.0306,-2.029,-2.0294,-2.0298,-2.0304,-2.0308,-2.0305,-2.023,0,0,0,0,0,-2.0062,-2.0088,-2.0109,-2.0142,-2.0152,-2.0166,-2.0181,-2.0184,-2.0205,-2.0213,-2.0227,-2.0246,-2.0272,-2.0288,-2.0312,-2.0354,-2.036,-2.0372,-2.0377,-2.038,-2.0384,-2.0409,-2.0416,-2.0347,-2.0347,-2.0347,0,0,-2.0076,-2.0093,-2.0109,-2.0145,-2.016,-2.0187,-2.0173,-2.0201,-2.0221,-2.0217,-2.0253,-2.0264,-2.0286,-2.0326,-2.0344,-2.0336,-2.0405,-2.0384,-2.0386,-2.0389,-2.0413,-2.0419,-2.0425,-2.0349,-2.0348,-2.0348,0,0,-2.0115,-2.013,-2.016,-2.0177,-2.0201,-2.021,-2.0217,-2.0241,-2.0249,-2.0285,-2.0283,-2.0306,-2.0349,-2.0366,-2.038,-2.0427,-2.0425,-2.0435,-2.0458,-2.0482,-2.0487,-2.0492,-2.0511,-2.0517,-2.0439,-2.0439,-2.0439,0,-2.0128,-2.0169,-2.0176,-2.0205,-2.0222,-2.022,-2.0251,-2.0267,-2.0297,-2.0309,-2.0299,-2.0355,-2.0369,-2.0414,-2.0426,-2.0437,-2.0446,-2.0432,-2.0486,-2.0491,-2.0495,-2.0513,-2.052,-2.044,-2.044,-2.044,-2.044,0,-2.0185,-2.0213,-2.0235,-2.0267,-2.0285,-2.0315,-2.0327,-2.0345,-2.0347,-2.0357,-2.0395,-2.0413,-2.0442,-2.0452,-2.0454,-2.0498,-2.0492,-2.0484,-2.0468,-2.0503,-2.052,-2.0527,-2.0442,-2.0441,-2.0441,-2.0441,0,0,-2.023,-2.0266,-2.0274,-2.0289,-2.0317,-2.0339,-2.0369,-2.0398,-2.0415,-2.0436,-2.0462,-2.05,-2.0493,-2.0509,-2.0513,-2.0534,-2.0573,-2.0524,-2.0524,-2.0533,-2.0624,-2.0631,-2.0639,-2.0571,-2.0572,-2.0573,-2.0623,0,-2.0272,-2.0327,-2.0336,-2.0384,-2.0411,-2.0411,-2.0438,-2.0458,-2.0468,-2.0493,-2.0504,-2.0531,-2.052,-2.053,-2.0551,-2.0563,-2.0591,-2.056,-2.0596,-2.0597,-2.0592,-2.0647,-2.0654,-2.07,-2.0629,-2.063,-2.0631,0,-2.0329,-2.0354,-2.0406,-2.0432,-2.0444,-2.0468,-2.0496,-2.0519,-2.0543,-2.0549,-2.0568,-2.057,-2.0602,-2.0584,-2.0629,-2.0607,-2.0623,-2.0631,-2.0633,-2.0638,-2.0617,-2.0655,-2.0715,-2.0723,-2.0641,-2.064,-2.064,0,-2.0359,-2.0405,-2.0443,-2.0455,-2.0486,-2.0504,-2.0517,-2.0539,-2.0557,-2.0581,-2.0593,-2.0621,-2.0636,-2.0658,-2.0667,-2.0652,-2.0712,-2.0694,-2.0719,-2.0719,-2.0733,-2.0732,-2.0798,-2.074,-2.074,-2.074,-2.074,0,-2.0407,-2.0439,-2.0457,-2.048,-2.0516,-2.0526,-2.0561,-2.0574,-2.0594,-2.062,-2.0621,-2.0645,-2.0655,-2.0681,-2.0689,-2.0726,-2.0733,-2.0739,-2.0741,-2.074,-2.0739,-2.0751,-2.0748,-2.0742,-2.0741,-2.0741,-2.0741,0,-2.0446,-2.0459,-2.0501,-2.0527,-2.0535,-2.056,-2.0583,-2.0606,-2.0617,-2.065,-2.0658,-2.0675,-2.0706,-2.0718,-2.0754,-2.076,-2.0804,-2.0802,-2.0796,-2.0797,-2.0822,-2.082,-2.0899,-2.091,-2.0844,-2.0844,-2.0845,0,-2.0476,-2.0501,-2.0531,-2.0549,-2.0564,-2.0592,-2.0611,-2.0621,-2.0641,-2.067,-2.069,-2.0721,-2.0746,-2.0796,-2.0812,-2.084,-2.084,-2.0866,-2.0845,-2.0844,-2.0843,-2.0842,-2.0845,-2.087,-2.0871,-2.0871,-2.0872,0,-2.0529,-2.0535,-2.0562,-2.0592,-2.0615,-2.0639,-2.0662,-2.0677,-2.0691,-2.0712,-2.0745,-2.0765,-2.0804,-2.0835,-2.0866,-2.0879,-2.0879,-2.0879,-2.0886,-2.0886,-2.0883,-2.0887,-2.0809,-2.0877,-2.0876,-2.0876,-2.0876,-2.0875,-2.0566,-2.0589,-2.0614,-2.0645,-2.0664,-2.0686,-2.071,-2.0725,-2.0752,-2.0786,-2.079,-2.0825,-2.0849,-2.089,-2.0905,-2.0933,-2.0926,-2.0936,-2.094,-2.0942,-2.0945,-2.0877,-2.0938,-2.0938,-2.0938,-2.0938,-2.0938,0,-2.062,-2.0637,-2.0665,-2.0699,-2.0724,-2.0721,-2.0748,-2.0768,-2.08,-2.0823,-2.0848,-2.0887,-2.0917,-2.0936,-2.0967,-2.0986,-2.0987,-2.0994,-2.0994,-2.0997,-2.0949,-2.094,-2.0993,-2.0993,-2.0993,-2.0993,-2.0993,-2.0993,-2.0651,-2.0691,-2.07,-2.075,-2.0766,-2.0802,-2.0817,-2.0838,-2.0857,-2.09,-2.0926,-2.0939,-2.096,-2.0993,-2.1022,-2.1027,-2.1039,-2.1047,-2.1051,-2.1006,-2.1,-2.0995,-2.0987,-2.1049,-2.1049,-2.1098,-2.1098,-2.1099]}]]